| time (UTC) | temp F | wind direction | speed knots | gust knots | rain 1hr in | rain 24hr in | rain mn in | humidity % | barometer mb |
| 20260506103143 | 66 | 235 | 0.0 | 2.6 | 0.00 | 0.00 | 0.00 | 82 | 1019.0 |
| 20260506102644 | 66 | 328 | 0.0 | 1.7 | 0.00 | 0.00 | 0.00 | 82 | 1019.0 |
| 20260506102143 | 66 | 165 | 0.9 | 1.7 | 0.00 | 0.00 | 0.00 | 82 | 1019.0 |
| 20260506101644 | 66 | 262 | 0.0 | 1.7 | 0.00 | 0.00 | 0.00 | 82 | 1019.0 |
| 20260506101144 | 67 | 286 | 0.0 | 1.7 | 0.00 | 0.00 | 0.00 | 82 | 1019.0 |
| 20260506100647 | 67 | 315 | 0.0 | 1.7 | 0.00 | 0.00 | 0.00 | 81 | 1019.0 |
| 20260506100145 | 67 | 232 | 0.0 | 3.5 | 0.00 | 0.00 | 0.00 | 81 | 1019.0 |
| 20260506095643 | 67 | 254 | 2.6 | 2.6 | 0.00 | 0.00 | 0.00 | 81 | 1019.0 |
| 20260506095144 | 67 | 89 | 0.0 | 3.5 | 0.00 | 0.00 | 0.00 | 81 | 1019.0 |
| 20260506094643 | 67 | 134 | 0.9 | 2.6 | 0.00 | 0.00 | 0.00 | 81 | 1018.0 |
| 20260506094144 | 67 | 301 | 2.6 | 2.6 | 0.00 | 0.00 | 0.00 | 80 | 1018.0 |
| 20260506093643 | 67 | 155 | 0.9 | 2.6 | 0.00 | 0.00 | 0.00 | 80 | 1019.0 |
| 20260506093143 | 67 | 141 | 1.7 | 4.3 | 0.00 | 0.00 | 0.00 | 79 | 1018.0 |
| 20260506092643 | 67 | 184 | 2.6 | 3.5 | 0.00 | 0.00 | 0.00 | 79 | 1018.0 |
| 20260506092141 | 67 | 233 | 0.0 | 2.6 | 0.00 | 0.00 | 0.00 | 78 | 1018.0 |
| 20260506091645 | 67 | 258 | 1.7 | 2.6 | 0.00 | 0.00 | 0.00 | 78 | 1018.0 |
| 20260506091143 | 67 | 299 | 1.7 | 4.3 | 0.00 | 0.00 | 0.00 | 78 | 1018.0 |
| 20260506090645 | 68 | 304 | 0.0 | 3.5 | 0.00 | 0.00 | 0.00 | 77 | 1018.0 |
| 20260506090143 | 68 | 182 | 0.0 | 2.6 | 0.00 | 0.00 | 0.00 | 76 | 1018.0 |
| 20260506085643 | 68 | 100 | 2.6 | 3.5 | 0.00 | 0.00 | 0.00 | 75 | 1018.0 |
| 20260506085146 | 68 | 112 | 2.6 | 4.3 | 0.00 | 0.00 | 0.00 | 74 | 1019.0 |
| 20260506084645 | 68 | 197 | 0.0 | 2.6 | 0.00 | 0.00 | 0.00 | 74 | 1018.0 |
| 20260506084141 | 68 | 230 | 0.0 | 2.6 | 0.00 | 0.00 | 0.00 | 73 | 1018.0 |
| 20260506083645 | 68 | 187 | 0.9 | 3.5 | 0.00 | 0.00 | 0.00 | 73 | 1018.0 |
| 20260506083145 | 68 | 153 | 0.9 | 9.6 | 0.00 | 0.00 | 0.00 | 72 | 1019.0 |
| 20260506082644 | 68 | 293 | 2.6 | 5.2 | 0.00 | 0.00 | 0.00 | 72 | 1018.0 |
| 20260506082145 | 68 | 299 | 4.3 | 4.3 | 0.00 | 0.00 | 0.00 | 71 | 1018.0 |
| 20260506081645 | 68 | 240 | 0.0 | 2.6 | 0.00 | 0.00 | 0.00 | 71 | 1018.0 |
| 20260506081144 | 68 | 184 | 0.0 | 3.5 | 0.00 | 0.00 | 0.00 | 71 | 1018.0 |
| 20260506080644 | 68 | 339 | 0.0 | 3.5 | 0.00 | 0.00 | 0.00 | 70 | 1018.0 |
| 20260506080144 | 69 | 254 | 1.7 | 5.2 | 0.00 | 0.00 | 0.00 | 70 | 1018.0 |
| 20260506073145 | 69 | 149 | 0.0 | 4.3 | 0.00 | 0.00 | 0.00 | 69 | 1019.0 |
| 20260506072643 | 69 | 264 | 0.9 | 3.5 | 0.00 | 0.00 | 0.00 | 68 | 1018.0 |
| 20260506072146 | 69 | 191 | 1.7 | 4.3 | 0.00 | 0.00 | 0.00 | 68 | 1019.0 |
| 20260506071643 | 69 | 284 | 2.6 | 3.5 | 0.00 | 0.00 | 0.00 | 67 | 1018.0 |
| 20260506071142 | 69 | 300 | 0.9 | 2.6 | 0.00 | 0.00 | 0.00 | 67 | 1019.0 |
| 20260506070643 | 69 | 232 | 0.0 | 4.3 | 0.00 | 0.00 | 0.00 | 66 | 1019.0 |
| 20260506070143 | 70 | 229 | 0.9 | 2.6 | 0.00 | 0.00 | 0.00 | 65 | 1019.0 |
| 20260506062144 | 70 | 232 | 0.9 | 1.7 | 0.00 | 0.00 | 0.00 | 55 | 1019.0 |
| 20260506061644 | 70 | 161 | 0.0 | 1.7 | 0.00 | 0.00 | 0.00 | 54 | 1019.0 |
| 20260506061145 | 70 | 281 | 0.0 | 0.9 | 0.00 | 0.00 | 0.00 | 53 | 1019.0 |
| 20260506060644 | 70 | 307 | 0.9 | 1.7 | 0.00 | 0.00 | 0.00 | 53 | 1019.0 |
| 20260506060143 | 70 | 285 | 0.9 | 3.5 | 0.00 | 0.00 | 0.00 | 52 | 1019.0 |
| 20260506051143 | 70 | 229 | 0.0 | 1.7 | 0.00 | 0.00 | 0.00 | 50 | 1019.0 |
| 20260506050644 | 70 | 290 | 0.9 | 2.6 | 0.00 | 0.00 | 0.00 | 50 | 1019.0 |
| 20260506050144 | 70 | 274 | 1.7 | 1.7 | 0.00 | 0.00 | 0.00 | 50 | 1019.0 |
| 20260506044642 | 70 | 285 | 0.0 | 1.7 | 0.00 | 0.00 | 0.00 | 51 | 1019.0 |
| 20260506044142 | 70 | 276 | 0.9 | 3.5 | 0.00 | 0.00 | 0.00 | 51 | 1019.0 |
| 20260506043646 | 70 | 247 | 0.0 | 1.7 | 0.00 | 0.00 | 0.00 | 51 | 1019.0 |
| 20260506043143 | 70 | 274 | 0.0 | 2.6 | 0.00 | 0.00 | 0.00 | 52 | 1019.0 |
| 20260506042644 | 70 | 269 | 0.0 | 1.7 | 0.00 | 0.00 | 0.00 | 52 | 1019.0 |
| 20260506042142 | 70 | 309 | 2.6 | 2.6 | 0.00 | 0.00 | 0.00 | 52 | 1019.0 |
| 20260506041644 | 70 | 260 | 1.7 | 1.7 | 0.00 | 0.00 | 0.00 | 52 | 1019.0 |
| 20260506041143 | 70 | 303 | 1.7 | 2.6 | 0.00 | 0.00 | 0.00 | 53 | 1019.0 |
| 20260506040643 | 70 | 282 | 0.0 | 2.6 | 0.00 | 0.00 | 0.00 | 52 | 1019.0 |
| 20260506040142 | 69 | 288 | 0.9 | 1.7 | 0.00 | 0.00 | 0.00 | 52 | 1019.0 |
| 20260506035641 | 70 | 283 | 0.9 | 0.9 | 0.00 | 0.00 | 0.00 | 52 | 1019.0 |
| 20260506035142 | 70 | 186 | 0.9 | 2.6 | 0.00 | 0.00 | 0.00 | 51 | 1019.0 |
| 20260506034642 | 70 | 296 | 0.0 | 2.6 | 0.00 | 0.00 | 0.00 | 50 | 1019.0 |
| 20260506034149 | 70 | 186 | 0.0 | 2.6 | 0.00 | 0.00 | 0.00 | 50 | 1019.0 |
| 20260506033641 | 70 | 224 | 0.0 | 2.6 | 0.00 | 0.00 | 0.00 | 50 | 1019.0 |
| 20260506033142 | 70 | 290 | 0.0 | 2.6 | 0.00 | 0.00 | 0.00 | 49 | 1019.0 |
| 20260506032643 | 70 | 265 | 0.9 | 1.7 | 0.00 | 0.00 | 0.00 | 48 | 1019.0 |
| 20260506032141 | 70 | 302 | 2.6 | 2.6 | 0.00 | 0.00 | 0.00 | 48 | 1019.0 |
| 20260506031643 | 70 | 256 | 0.0 | 2.6 | 0.00 | 0.00 | 0.00 | 49 | 1019.0 |
| 20260506031145 | 70 | 280 | 0.0 | 2.6 | 0.00 | 0.00 | 0.00 | 49 | 1019.0 |
| 20260506030645 | 69 | 315 | 1.7 | 2.6 | 0.00 | 0.00 | 0.00 | 50 | 1019.0 |
| 20260506030145 | 69 | 302 | 0.0 | 1.7 | 0.00 | 0.00 | 0.00 | 50 | 1019.0 |
| 20260506025649 | 69 | 289 | 0.0 | 1.7 | 0.00 | 0.00 | 0.00 | 52 | 1019.0 |
| 20260506025142 | 69 | 255 | 0.0 | 0.9 | 0.00 | 0.00 | 0.00 | 53 | 1019.0 |
| 20260506024643 | 69 | 292 | 1.7 | 1.7 | 0.00 | 0.00 | 0.00 | 52 | 1019.0 |
| 20260506024144 | 69 | 287 | 0.9 | 1.7 | 0.00 | 0.00 | 0.00 | 52 | 1019.0 |
| 20260506023641 | 69 | 315 | 0.0 | 1.7 | 0.00 | 0.00 | 0.00 | 51 | 1019.0 |
| 20260506023141 | 70 | 288 | 0.9 | 1.7 | 0.00 | 0.00 | 0.00 | 50 | 1019.0 |
| 20260506022644 | 70 | 282 | 0.9 | 1.7 | 0.00 | 0.00 | 0.00 | 48 | 1019.0 |
| 20260506022143 | 70 | 212 | 0.0 | 0.9 | 0.00 | 0.00 | 0.00 | 48 | 1019.0 |
| 20260506021642 | 70 | 269 | 0.9 | 1.7 | 0.00 | 0.00 | 0.00 | 47 | 1019.0 |
| 20260506021145 | 70 | 269 | 0.0 | 1.7 | 0.00 | 0.00 | 0.00 | 48 | 1019.0 |
| 20260506020643 | 71 | 293 | 0.0 | 1.7 | 0.00 | 0.00 | 0.00 | 47 | 1019.0 |
| 20260506020144 | 71 | 293 | 0.9 | 1.7 | 0.00 | 0.00 | 0.00 | 47 | 1019.0 |
| 20260506015642 | 71 | 277 | 0.9 | 1.7 | 0.00 | 0.00 | 0.00 | 46 | 1019.0 |
| 20260506015141 | 71 | 260 | 0.0 | 1.7 | 0.00 | 0.00 | 0.00 | 45 | 1019.0 |
| 20260506014644 | 71 | 89 | 0.0 | 1.7 | 0.00 | 0.00 | 0.00 | 45 | 1019.0 |
| 20260506013652 | 71 | 276 | 2.6 | 2.6 | 0.00 | 0.00 | 0.00 | 45 | 1019.0 |
| 20260506013142 | 71 | 299 | 0.9 | 4.3 | 0.00 | 0.00 | 0.00 | 46 | 1019.0 |
| 20260506012643 | 71 | 268 | 1.7 | 1.7 | 0.00 | 0.00 | 0.00 | 46 | 1019.0 |
| 20260506012143 | 71 | 195 | 0.0 | 2.6 | 0.00 | 0.00 | 0.00 | 45 | 1019.0 |
| 20260506011643 | 71 | 276 | 2.6 | 2.6 | 0.00 | 0.00 | 0.00 | 46 | 1019.0 |
| 20260506011141 | 71 | 269 | 0.0 | 1.7 | 0.00 | 0.00 | 0.00 | 46 | 1019.0 |
| 20260506010642 | 72 | 225 | 0.9 | 1.7 | 0.00 | 0.00 | 0.00 | 46 | 1019.0 |
| 20260506010147 | 72 | 269 | 0.0 | 1.7 | 0.00 | 0.00 | 0.00 | 45 | 1019.0 |
| 20260506005642 | 73 | 289 | 0.9 | 1.7 | 0.00 | 0.00 | 0.00 | 44 | 1019.0 |
| 20260506005144 | 73 | 265 | 0.9 | 1.7 | 0.00 | 0.00 | 0.00 | 44 | 1019.0 |
| 20260506004644 | 73 | 246 | 0.0 | 1.7 | 0.00 | 0.00 | 0.00 | 45 | 1019.0 |
| 20260506004145 | 73 | 269 | 0.9 | 2.6 | 0.00 | 0.00 | 0.00 | 44 | 1019.0 |
| 20260506003643 | 74 | 264 | 0.0 | 1.7 | 0.00 | 0.00 | 0.00 | 43 | 1019.0 |
| 20260506003145 | 74 | 271 | 0.9 | 1.7 | 0.00 | 0.00 | 0.00 | 43 | 1019.0 |
| 20260506002645 | 74 | 189 | 0.0 | 1.7 | 0.00 | 0.00 | 0.00 | 42 | 1019.0 |
| 20260506002145 | 74 | 264 | 1.7 | 2.6 | 0.00 | 0.00 | 0.00 | 42 | 1019.0 |
| 20260506001643 | 75 | 232 | 0.9 | 2.6 | 0.00 | 0.00 | 0.00 | 41 | 1019.0 |
| 20260506001143 | 75 | 296 | 0.0 | 4.3 | 0.00 | 0.00 | 0.00 | 41 | 1019.0 |
| 20260506000643 | 75 | 245 | 0.9 | 3.5 | 0.00 | 0.00 | 0.00 | 42 | 1019.0 |
| 20260506000141 | 75 | 269 | 0.0 | 2.6 | 0.00 | 0.00 | 0.00 | 42 | 1019.0 |
| 20260505235641 | 75 | 291 | 3.5 | 4.3 | 0.00 | 0.00 | 0.00 | 42 | 1019.0 |
| 20260505235144 | 75 | 269 | 0.0 | 3.5 | 0.00 | 0.00 | 0.00 | 42 | 1019.0 |
| 20260505234643 | 76 | 280 | 0.0 | 1.7 | 0.00 | 0.00 | 0.00 | 43 | 1019.0 |
| 20260505234142 | 76 | 274 | 1.7 | 1.7 | 0.00 | 0.00 | 0.00 | 42 | 1019.0 |
| 20260505233646 | 75 | 286 | 1.7 | 4.3 | 0.00 | 0.00 | 0.00 | 42 | 1019.0 |
| 20260505233142 | 76 | 250 | 1.7 | 4.3 | 0.00 | 0.00 | 0.00 | 42 | 1019.0 |
| 20260505232641 | 76 | 201 | 0.9 | 1.7 | 0.00 | 0.00 | 0.00 | 42 | 1019.0 |
| 20260505232142 | 76 | 269 | 0.0 | 2.6 | 0.00 | 0.00 | 0.00 | 42 | 1019.0 |
| 20260505231643 | 76 | 293 | 2.6 | 5.2 | 0.00 | 0.00 | 0.00 | 42 | 1019.0 |
| 20260505231143 | 76 | 251 | 1.7 | 2.6 | 0.00 | 0.00 | 0.00 | 42 | 1019.0 |
| 20260505230644 | 76 | 266 | 2.6 | 2.6 | 0.00 | 0.00 | 0.00 | 41 | 1019.0 |
| 20260505230144 | 77 | 273 | 3.5 | 7.0 | 0.00 | 0.00 | 0.00 | 40 | 1019.0 |
| 20260505225645 | 77 | 285 | 3.5 | 3.5 | 0.00 | 0.00 | 0.00 | 41 | 1019.0 |
| 20260505225144 | 77 | 265 | 0.9 | 3.5 | 0.00 | 0.00 | 0.00 | 40 | 1019.0 |
| 20260505224641 | 77 | 267 | 0.9 | 2.6 | 0.00 | 0.00 | 0.00 | 40 | 1019.0 |
| 20260505224142 | 77 | 306 | 2.6 | 2.6 | 0.00 | 0.00 | 0.00 | 40 | 1019.0 |
| 20260505223643 | 77 | 274 | 1.7 | 5.2 | 0.00 | 0.00 | 0.00 | 40 | 1019.0 |
| 20260505223144 | 77 | 286 | 1.7 | 5.2 | 0.00 | 0.00 | 0.00 | 39 | 1019.0 |
| 20260505222641 | 77 | 275 | 1.7 | 6.1 | 0.00 | 0.00 | 0.00 | 39 | 1019.0 |
| 20260505222144 | 77 | 286 | 5.2 | 7.0 | 0.00 | 0.00 | 0.00 | 38 | 1019.0 |
| 20260505221642 | 78 | 292 | 1.7 | 6.1 | 0.00 | 0.00 | 0.00 | 37 | 1019.0 |
| 20260505221142 | 78 | 195 | 0.9 | 3.5 | 0.00 | 0.00 | 0.00 | 37 | 1019.0 |
| 20260505220643 | 78 | 327 | 0.0 | 7.8 | 0.00 | 0.00 | 0.00 | 37 | 1019.0 |
| 20260505220143 | 79 | 275 | 2.6 | 4.3 | 0.00 | 0.00 | 0.00 | 37 | 1019.0 |
| 20260505215644 | 80 | 311 | 0.0 | 4.3 | 0.00 | 0.00 | 0.00 | 36 | 1019.0 |
| 20260505215143 | 80 | 301 | 0.9 | 4.3 | 0.00 | 0.00 | 0.00 | 34 | 1019.0 |
| 20260505214644 | 80 | 276 | 2.6 | 4.3 | 0.00 | 0.00 | 0.00 | 35 | 1019.0 |
| 20260505214143 | 79 | 302 | 5.2 | 5.2 | 0.00 | 0.00 | 0.00 | 36 | 1019.0 |
| 20260505213644 | 80 | 289 | 4.3 | 6.1 | 0.00 | 0.00 | 0.00 | 35 | 1020.0 |
| 20260505213146 | 80 | 143 | 0.9 | 2.6 | 0.00 | 0.00 | 0.00 | 34 | 1020.0 |
| 20260505212646 | 79 | 335 | 0.0 | 5.2 | 0.00 | 0.00 | 0.00 | 38 | 1019.0 |
| 20260505212145 | 79 | 157 | 1.7 | 7.0 | 0.00 | 0.00 | 0.00 | 36 | 1020.0 |
| 20260505211644 | 80 | 255 | 0.9 | 2.6 | 0.00 | 0.00 | 0.00 | 35 | 1020.0 |
| 20260505211141 | 79 | 242 | 1.7 | 10.4 | 0.00 | 0.00 | 0.00 | 37 | 1020.0 |
| 20260505210643 | 80 | 281 | 3.5 | 6.1 | 0.00 | 0.00 | 0.00 | 35 | 1020.0 |
| 20260505210143 | 79 | 315 | 0.0 | 4.3 | 0.00 | 0.00 | 0.00 | 35 | 1020.0 |
| 20260505205643 | 78 | 319 | 0.9 | 3.5 | 0.00 | 0.00 | 0.00 | 36 | 1020.0 |
| 20260505205143 | 79 | 271 | 2.6 | 3.5 | 0.00 | 0.00 | 0.00 | 36 | 1020.0 |
| 20260505204644 | 78 | 262 | 2.6 | 8.7 | 0.00 | 0.00 | 0.00 | 36 | 1020.0 |
| 20260505204141 | 79 | 287 | 2.6 | 7.0 | 0.00 | 0.00 | 0.00 | 35 | 1020.0 |
| 20260505203643 | 79 | 170 | 1.7 | 7.8 | 0.00 | 0.00 | 0.00 | 35 | 1020.0 |
| 20260505203145 | 78 | 98 | 0.9 | 6.1 | 0.00 | 0.00 | 0.00 | 35 | 1020.0 |
| 20260505202644 | 78 | 278 | 2.6 | 11.3 | 0.00 | 0.00 | 0.00 | 37 | 1020.0 |
| 20260505202145 | 79 | 245 | 5.2 | 5.2 | 0.00 | 0.00 | 0.00 | 35 | 1020.0 |
| 20260505201645 | 79 | 317 | 8.7 | 8.7 | 0.00 | 0.00 | 0.00 | 34 | 1020.0 |
| 20260505201143 | 78 | 235 | 0.0 | 7.0 | 0.00 | 0.00 | 0.00 | 36 | 1021.0 |
| 20260505200643 | 79 | 263 | 3.5 | 6.1 | 0.00 | 0.00 | 0.00 | 36 | 1021.0 |
| 20260505200146 | 80 | 289 | 2.6 | 3.5 | 0.00 | 0.00 | 0.00 | 35 | 1021.0 |
| 20260505195644 | 80 | 120 | 1.7 | 5.2 | 0.00 | 0.00 | 0.00 | 34 | 1021.0 |
| 20260505195143 | 78 | 286 | 2.6 | 7.8 | 0.00 | 0.00 | 0.00 | 35 | 1021.0 |
| 20260505194644 | 78 | 275 | 1.7 | 6.1 | 0.00 | 0.00 | 0.00 | 35 | 1021.0 |
| 20260505194144 | 78 | 276 | 2.6 | 5.2 | 0.00 | 0.00 | 0.00 | 35 | 1021.0 |
| 20260505193644 | 78 | 304 | 1.7 | 5.2 | 0.00 | 0.00 | 0.00 | 36 | 1021.0 |
| 20260505193144 | 78 | 292 | 6.1 | 6.1 | 0.00 | 0.00 | 0.00 | 35 | 1021.0 |
| 20260505192648 | 78 | 102 | 1.7 | 7.8 | 0.00 | 0.00 | 0.00 | 34 | 1021.0 |
| 20260505192144 | 80 | 299 | 2.6 | 6.1 | 0.00 | 0.00 | 0.00 | 35 | 1021.0 |
| 20260505191644 | 79 | 284 | 1.7 | 7.8 | 0.00 | 0.00 | 0.00 | 37 | 1021.0 |
| 20260505191143 | 77 | 256 | 3.5 | 4.3 | 0.00 | 0.00 | 0.00 | 39 | 1021.0 |
| 20260505190644 | 78 | 276 | 5.2 | 6.1 | 0.00 | 0.00 | 0.00 | 36 | 1021.0 |
| 20260505190144 | 80 | 131 | 4.3 | 5.2 | 0.00 | 0.00 | 0.00 | 35 | 1021.0 |
| 20260505185642 | 79 | 294 | 3.5 | 4.3 | 0.00 | 0.00 | 0.00 | 36 | 1021.0 |
| 20260505185143 | 79 | 289 | 3.5 | 6.1 | 0.00 | 0.00 | 0.00 | 36 | 1021.0 |
| 20260505184642 | 78 | 275 | 0.9 | 6.1 | 0.00 | 0.00 | 0.00 | 35 | 1021.0 |
| 20260505184144 | 79 | 320 | 3.5 | 4.3 | 0.00 | 0.00 | 0.00 | 35 | 1022.0 |
| 20260505183643 | 78 | 292 | 2.6 | 3.5 | 0.00 | 0.00 | 0.00 | 37 | 1022.0 |
| 20260505183143 | 77 | 284 | 3.5 | 7.0 | 0.00 | 0.00 | 0.00 | 39 | 1022.0 |
| 20260505182643 | 77 | 277 | 1.7 | 3.5 | 0.00 | 0.00 | 0.00 | 37 | 1022.0 |
| 20260505182144 | 78 | 286 | 4.3 | 7.0 | 0.00 | 0.00 | 0.00 | 40 | 1022.0 |
| 20260505181644 | 77 | 301 | 3.5 | 5.2 | 0.00 | 0.00 | 0.00 | 39 | 1022.0 |
| 20260505181144 | 77 | 273 | 2.6 | 6.1 | 0.00 | 0.00 | 0.00 | 40 | 1022.0 |
| 20260505180644 | 77 | 265 | 3.5 | 6.1 | 0.00 | 0.00 | 0.00 | 40 | 1022.0 |
| 20260505180144 | 77 | 299 | 0.9 | 8.7 | 0.00 | 0.00 | 0.00 | 40 | 1022.0 |
| 20260505175646 | 78 | 256 | 2.6 | 7.8 | 0.00 | 0.00 | 0.00 | 39 | 1022.0 |
| 20260505175143 | 78 | 283 | 6.1 | 7.0 | 0.00 | 0.00 | 0.00 | 37 | 1022.0 |
| 20260505174645 | 78 | 99 | 2.6 | 6.1 | 0.00 | 0.00 | 0.00 | 36 | 1022.0 |
| 20260505174143 | 78 | 288 | 3.5 | 4.3 | 0.00 | 0.00 | 0.00 | 37 | 1022.0 |
| 20260505173646 | 79 | 262 | 2.6 | 3.5 | 0.00 | 0.00 | 0.00 | 36 | 1023.0 |
| 20260505173143 | 78 | 157 | 1.7 | 7.8 | 0.00 | 0.00 | 0.00 | 37 | 1023.0 |
| 20260505172641 | 78 | 110 | 7.0 | 9.6 | 0.00 | 0.00 | 0.00 | 36 | 1023.0 |
| 20260505172143 | 78 | 220 | 0.9 | 11.3 | 0.00 | 0.00 | 0.00 | 36 | 1023.0 |
| 20260505171643 | 77 | 282 | 5.2 | 5.2 | 0.00 | 0.00 | 0.00 | 35 | 1023.0 |
| 20260505171146 | 78 | 289 | 3.5 | 6.1 | 0.00 | 0.00 | 0.00 | 36 | 1023.0 |
| 20260505170643 | 77 | 203 | 2.6 | 2.6 | 0.00 | 0.00 | 0.00 | 37 | 1023.0 |
| 20260505170144 | 77 | 286 | 4.3 | 4.3 | 0.00 | 0.00 | 0.00 | 39 | 1023.0 |
| 20260505165646 | 75 | 278 | 1.7 | 7.8 | 0.00 | 0.00 | 0.00 | 41 | 1023.0 |
| 20260505165147 | 77 | 268 | 3.5 | 7.0 | 0.00 | 0.00 | 0.00 | 40 | 1023.0 |
| 20260505164646 | 77 | 200 | 1.7 | 6.1 | 0.00 | 0.00 | 0.00 | 39 | 1022.0 |
| 20260505164144 | 77 | 278 | 4.3 | 7.0 | 0.00 | 0.00 | 0.00 | 40 | 1023.0 |
| 20260505163644 | 76 | 88 | 3.5 | 5.2 | 0.00 | 0.00 | 0.00 | 39 | 1023.0 |
| 20260505163143 | 76 | 259 | 3.5 | 7.0 | 0.00 | 0.00 | 0.00 | 41 | 1023.0 |
| 20260505162643 | 77 | 307 | 6.1 | 10.4 | 0.00 | 0.00 | 0.00 | 40 | 1023.0 |
| 20260505162144 | 78 | 269 | 2.6 | 5.2 | 0.00 | 0.00 | 0.00 | 41 | 1023.0 |
| 20260505161645 | 76 | 223 | 2.6 | 4.3 | 0.00 | 0.00 | 0.00 | 40 | 1023.0 |
| 20260505161145 | 77 | 290 | 5.2 | 6.1 | 0.00 | 0.00 | 0.00 | 39 | 1023.0 |
| 20260505160644 | 76 | 211 | 1.7 | 5.2 | 0.00 | 0.00 | 0.00 | 39 | 1023.0 |
| 20260505160143 | 76 | 271 | 2.6 | 6.1 | 0.00 | 0.00 | 0.00 | 41 | 1023.0 |
| 20260505153143 | 77 | 147 | 0.0 | 2.6 | 0.00 | 0.00 | 0.00 | 41 | 1023.0 |
| 20260505152645 | 77 | 280 | 1.7 | 3.5 | 0.00 | 0.00 | 0.00 | 43 | 1023.0 |
| 20260505152143 | 76 | 219 | 0.0 | 3.5 | 0.00 | 0.00 | 0.00 | 41 | 1023.0 |
| 20260505151643 | 76 | 126 | 1.7 | 4.3 | 0.00 | 0.00 | 0.00 | 41 | 1023.0 |
| 20260505151144 | 76 | 284 | 0.9 | 2.6 | 0.00 | 0.00 | 0.00 | 39 | 1023.0 |
| 20260505150641 | 74 | 278 | 0.0 | 4.3 | 0.00 | 0.00 | 0.00 | 44 | 1024.0 |
| 20260505150144 | 73 | 299 | 4.3 | 4.3 | 0.00 | 0.00 | 0.00 | 49 | 1024.0 |
| 20260505140644 | 67 | 284 | 0.9 | 2.6 | 0.00 | 0.00 | 0.00 | 57 | 1024.0 |
| 20260505140145 | 69 | 88 | 2.6 | 2.6 | 0.00 | 0.00 | 0.00 | 55 | 1023.0 |
| 20260505130144 | 59 | 277 | 3.5 | 4.3 | 0.00 | 0.00 | 0.00 | 74 | 1023.0 |
| 20260505124643 | 56 | 260 | 0.0 | 0.9 | 0.00 | 0.00 | 0.00 | 82 | 1023.0 |
| 20260505124143 | 56 | 293 | 0.9 | 2.6 | 0.00 | 0.00 | 0.00 | 80 | 1023.0 |
| 20260505123645 | 55 | 283 | 1.7 | 1.7 | 0.00 | 0.00 | 0.00 | 84 | 1023.0 |
| 20260505123146 | 54 | 272 | 0.9 | 1.7 | 0.00 | 0.00 | 0.00 | 87 | 1023.0 |
| 20260505122643 | 52 | 312 | 0.9 | 1.7 | 0.00 | 0.00 | 0.00 | 95 | 1023.0 |
| 20260505122144 | 51 | 319 | 0.9 | 0.9 | 0.00 | 0.00 | 0.00 | 97 | 1023.0 |
| 20260505121643 | 51 | 322 | 0.0 | 0.0 | 0.00 | 0.00 | 0.00 | 97 | 1023.0 |
| 20260505121145 | 50 | 297 | 0.0 | 0.0 | 0.00 | 0.00 | 0.00 | 98 | 1023.0 |
| 20260505120645 | 50 | 269 | 0.0 | 0.0 | 0.00 | 0.00 | 0.00 | 98 | 1022.0 |
| 20260505120146 | 50 | 217 | 0.0 | 0.0 | 0.00 | 0.00 | 0.00 | 98 | 1023.0 |
| 20260505115643 | 49 | 230 | 0.0 | 0.0 | 0.00 | 0.00 | 0.00 | 98 | 1022.0 |
| 20260505115145 | 48 | 315 | 0.0 | 0.0 | 0.00 | 0.00 | 0.00 | 98 | 1022.0 |
| 20260505114646 | 48 | 282 | 0.0 | 0.0 | 0.00 | 0.00 | 0.00 | 98 | 1022.0 |
| 20260505114143 | 48 | 282 | 0.0 | 0.9 | 0.00 | 0.00 | 0.00 | 98 | 1022.0 |
| 20260505113645 | 48 | 297 | 0.0 | 0.0 | 0.00 | 0.00 | 0.00 | 98 | 1022.0 |
| 20260505113144 | 47 | 242 | 0.0 | 0.0 | 0.00 | 0.00 | 0.00 | 98 | 1022.0 |
| 20260505112644 | 47 | 242 | 0.0 | 0.0 | 0.00 | 0.00 | 0.00 | 98 | 1022.0 |
| 20260505112141 | 47 | 224 | 0.0 | 0.0 | 0.00 | 0.00 | 0.00 | 98 | 1022.0 |
| 20260505111644 | 47 | 224 | 0.0 | 0.0 | 0.00 | 0.00 | 0.00 | 97 | 1022.0 |
| 20260505111143 | 47 | 230 | 0.0 | 0.0 | 0.00 | 0.00 | 0.00 | 97 | 1022.0 |
| 20260505110645 | 47 | 297 | 0.0 | 0.0 | 0.00 | 0.00 | 0.00 | 97 | 1022.0 |
| 20260505110144 | 47 | 242 | 0.0 | 0.9 | 0.00 | 0.00 | 0.00 | 97 | 1022.0 |